星链-11139 (STARLINK-11139)

导读 | 星芒AI

STARLINK-11139 是 SpaceX 星链计划中的一颗低轨通信卫星,属于第 24 批星链卫星任务(Transporter 5)。该卫星于 2023 年 11 月发射,部署在近地轨道,旨在为全球用户提供高速互联网服务。星链系统由数千颗卫星组成,致力于改善偏远地区的网络接入。STARLINK-11139 采用先进推进和通信技术,支持高频段数据传输,并具备自主避障能力,以确保轨道安全。

基本信息
目录编号:
60402
目录名称:
STARLINK-11139
国际标识:
2024-141E
轨道中心:
EARTH
卫星名称:
星链-11139 (STARLINK-11139)
卫星全名:
星链-11139 (STARLINK-11139)
卫星状态:
在轨 (已飞行492 天)
发射日期:
2024-08-10 UTC
国别 :
美国 (US)
星等 :
--
轨道信息
数据来源 国际轨道数据
星历时间: 2025-12-15T04:36:37+0800
22小时前
查看轨道信息
半长轴: 6737.784km
偏心率: 0.0001408
轨道倾角: 53.159°
近地点辐角 117.739°
升交点赤经 144.129°
平近点角 242.377°
近地点: 358.7km
远地点: 360.598km
周期: 91.735分钟
每日圈数: 15.697381
详细信息
卫星平台:
Starlink v2.0 mini
运营商:
太空探索技术公司
运营商所在国:
美国
制造商(研发单位):
太空探索技术公司
制造商所在国:
美国
使用方式:
暂无
卫星简介
星链(Starlink)计划是由太空探索技术公司(SpaceX)提出的一个巨型低轨卫星互联网星座项目,计划在2019年至2024年间在太空搭建由约1.2万颗卫星组成的“星链”网络,其中1584颗将部署在地球上空550千米处的近地轨道,并从2020年开始工作。该卫星仍在工作。
2D轨道图
3D轨道图
轨道高度分析图
轨道倾角分析图
轨道综合分析图
查看轨道综合分析图